Pineville, WV

12:52 PM EST on December 12, 2019 (GMT -0500)
Pineville

Weather History for KI16 - October, 2019

Change the Weather History Date:

Wednesday, October 2, 2019

  Actual Average (KBKW) Record (KBKW)
Temperature  
Mean Temperature 77 °F -  
Max Temperature 93 °F 65 °F 86 °F (1941)
Min Temperature 61 °F 46 °F 22 °F (1930)
Cooling Degree Days 12    
Growing Degree Days 27 (Base 50)    
Moisture  
Dew Point 62 °F    
Average Humidity 68    
Maximum Humidity 96    
Minimum Humidity 31    
Precipitation  
Precipitation 0.00 in - - ()
Sea Level Pressure  
Sea Level Pressure 30.11 in    
Wind  
Wind Speed - (North)    
Max Wind Speed -    
Max Gust Speed -    
Visibility 9 miles    
Events      
Averages and records for this station are not official NWS values.
T = Trace of Precipitation, MM = Missing Value Source: NWS Daily Summary

Daily Weather History Graph

Daily Weather History Graph

Search for Another Location

Airport or City:

Astronomy

Oct. 02, 2019 Rise Set
Actual Time 7:22 AM EDT 7:08 PM EDT
Civil Twilight 6:56 AM EDT 7:34 PM EDT
Nautical Twilight 6:25 AM EDT 8:04 PM EDT
Astronomical Twilight 5:55 AM EDT 8:35 PM EDT
Moon 11:41 AM EDT (10/2) 10:06 PM EDT (10/2)
Length of Visible Light 12h 37m
Length of Day
11h 45m
Waxing Crescent, 20% of the Moon is Illuminated
Oct 2
Waxing Crescent
Oct 5
First Quarter
Oct 13
Full
Oct 21
Last Quarter
Oct 27
New

Hourly Weather History & Observations

Time (EDT) Temp. Heat Index Dew Point Humidity Pressure Visibility Wind Dir Wind Speed Gust Speed Precip Events Conditions
12:15 AM 68.0 °F - 63.0 °F 84% 30.12 in 10.0 mi North - - N/A   Clear
12:35 AM 67.6 °F - 63.1 °F 85% 30.12 in 10.0 mi North - - N/A   Clear
12:55 AM 67.5 °F - 62.8 °F 85% 30.12 in 10.0 mi North - - N/A   Clear
1:15 AM 67.1 °F - 63.0 °F 87% 30.11 in 10.0 mi North - - N/A   Clear
1:35 AM 66.4 °F - 63.0 °F 89% 30.11 in 10.0 mi North - - N/A   Clear
1:55 AM 66.2 °F - 62.8 °F 89% 30.11 in 10.0 mi North - - N/A   Clear
2:15 AM 65.8 °F - 62.8 °F 90% 30.12 in 10.0 mi North - - N/A   Clear
2:35 AM 65.3 °F - 62.4 °F 90% 30.12 in 10.0 mi North - - N/A   Clear
2:55 AM 65.3 °F - 62.4 °F 90% 30.11 in 10.0 mi North - - N/A   Clear
3:15 AM 64.9 °F - 62.6 °F 92% 30.12 in 10.0 mi North - - N/A   Clear
3:35 AM 64.8 °F - 61.9 °F 90% 30.11 in 10.0 mi North - - N/A   Clear
3:55 AM 64.4 °F - 62.2 °F 93% 30.11 in 10.0 mi North - - N/A   Clear
4:15 AM 64.4 °F - 62.1 °F 92% 30.11 in 10.0 mi North - - N/A   Clear
4:35 AM 64.2 °F - 61.3 °F 90% 30.12 in 10.0 mi North - - N/A   Clear
4:55 AM 63.5 °F - 61.3 °F 93% 30.12 in 7.0 mi North - - N/A   Clear
5:15 AM 63.1 °F - 61.3 °F 94% 30.12 in 7.0 mi North - - N/A   Clear
5:55 AM 62.8 °F - 61.0 °F 94% 30.13 in 7.0 mi North - - N/A   Clear
6:15 AM 62.6 °F - 60.8 °F 94% 30.13 in 5.0 mi North - - N/A   Clear
6:35 AM 62.2 °F - 60.4 °F 94% 30.13 in 5.0 mi North - - N/A   Clear
6:55 AM 62.1 °F - 60.8 °F 96% 30.14 in 4.0 mi North - - N/A   Clear
7:15 AM 61.9 °F - 60.8 °F 96% 30.15 in 4.0 mi North - - N/A   Clear
7:35 AM 61.9 °F - 60.3 °F 94% 30.15 in 7.0 mi North - - N/A   Clear
7:55 AM 62.1 °F - 60.4 °F 94% 30.15 in 7.0 mi North - - N/A   Clear
8:15 AM 62.4 °F - 60.8 °F 94% 30.15 in 4.0 mi North - - N/A   Clear
8:35 AM 63.3 °F - 61.9 °F 95% 30.15 in 7.0 mi North - - N/A   Clear
8:55 AM 65.3 °F - 62.4 °F 90% 30.16 in 10.0 mi North - - N/A   Clear
9:15 AM 67.8 °F - 63.3 °F 85% 30.16 in 10.0 mi North - - N/A   Clear
9:55 AM 75.6 °F - 64.8 °F 69% 30.16 in 10.0 mi North - - N/A   Clear
10:15 AM 80.2 °F 82.0 °F 64.6 °F 59% 30.16 in 10.0 mi North - - N/A   Clear
10:35 AM 81.3 °F 83.0 °F 64.6 °F 57% 30.16 in 10.0 mi North - - N/A   Scattered Clouds
10:55 AM 79.7 °F - 64.2 °F 59% 30.16 in 10.0 mi North - - N/A   Mostly Cloudy
11:15 AM 81.1 °F 82.7 °F 64.2 °F 56% 30.16 in 10.0 mi North - - N/A   Overcast
11:35 AM 81.9 °F 83.4 °F 64.2 °F 55% 30.16 in 10.0 mi North - - N/A   Mostly Cloudy
12:00 PM 83.3 °F 84.8 °F 64.6 °F 53% 30.15 in 10.0 mi North - - N/A   Scattered Clouds
12:15 PM 84.9 °F 86.3 °F 64.4 °F 50% 30.14 in 10.0 mi North - - N/A   Scattered Clouds
12:35 PM 87.6 °F 88.8 °F 63.9 °F 45% 30.14 in 10.0 mi North - - N/A   Clear
12:55 PM 88.0 °F 89.0 °F 63.5 °F 44% 30.13 in 10.0 mi North - - N/A   Clear
1:15 PM 88.2 °F 89.0 °F 63.0 °F 43% 30.12 in 10.0 mi North - - N/A   Scattered Clouds
1:35 PM 89.2 °F 89.9 °F 62.6 °F 41% 30.11 in 10.0 mi North - - N/A   Mostly Cloudy
1:55 PM 90.3 °F 90.5 °F 61.5 °F 38% 30.11 in 10.0 mi North - - N/A   Overcast
2:15 PM 91.4 °F 91.0 °F 60.4 °F 35% 30.09 in 10.0 mi North - - N/A   Mostly Cloudy
2:35 PM 92.3 °F 91.6 °F 59.4 °F 33% 30.09 in 10.0 mi North - - N/A   Mostly Cloudy
2:55 PM 92.8 °F 92.1 °F 58.8 °F 32% 30.08 in 10.0 mi North - - N/A   Mostly Cloudy
3:15 PM 92.5 °F 91.6 °F 58.6 °F 32% 30.07 in 10.0 mi North - - N/A   Mostly Cloudy
3:35 PM 93.0 °F 92.0 °F 58.5 °F 31% 30.07 in 10.0 mi North - - N/A   Scattered Clouds
3:55 PM 91.8 °F 90.9 °F 58.8 °F 33% 30.06 in 10.0 mi North - - N/A   Scattered Clouds
4:15 PM 91.9 °F 91.5 °F 59.7 °F 34% 30.05 in 10.0 mi North - - N/A   Scattered Clouds
4:35 PM 91.9 °F 91.2 °F 59.0 °F 33% 30.05 in 10.0 mi North - - N/A   Clear
4:55 PM 92.5 °F 91.6 °F 58.5 °F 32% 30.04 in 10.0 mi North - - N/A   Scattered Clouds
5:15 PM 92.3 °F 91.3 °F 58.3 °F 32% 30.04 in 10.0 mi North - - N/A   Scattered Clouds
5:35 PM 90.0 °F 89.1 °F 58.8 °F 35% 30.04 in 10.0 mi North - - N/A   Scattered Clouds
5:55 PM 89.6 °F 88.1 °F 56.8 °F 33% 30.04 in 10.0 mi North - - N/A   Clear
6:15 PM 88.3 °F 87.3 °F 58.3 °F 36% 30.05 in 10.0 mi North - - N/A   Clear
6:35 PM 84.4 °F 84.4 °F 60.3 °F 44% 30.05 in 10.0 mi North - - N/A   Clear
6:55 PM 81.1 °F 82.0 °F 61.5 °F 51% 30.06 in 10.0 mi North - - N/A   Clear
7:15 PM 77.7 °F - 61.9 °F 58% 30.06 in 10.0 mi North - - N/A   Clear
7:35 PM 77.0 °F - 62.2 °F 60% 30.07 in 10.0 mi North - - N/A   Clear
7:55 PM 75.6 °F - 62.6 °F 64% 30.07 in 10.0 mi North - - N/A   Clear
8:15 PM 74.3 °F - 62.1 °F 65% 30.08 in 10.0 mi North - - N/A   Clear
8:35 PM 73.4 °F - 61.9 °F 67% 30.08 in 10.0 mi North - - N/A   Clear
8:55 PM 72.1 °F - 61.9 °F 70% 30.09 in 10.0 mi North - - N/A   Clear
9:15 PM 71.1 °F - 61.9 °F 73% 30.09 in 10.0 mi North - - N/A   Clear
9:40 PM 70.7 °F - 61.7 °F 73% 30.09 in 10.0 mi North - - N/A   Clear
9:55 PM 69.8 °F - 62.1 °F 76% 30.09 in 10.0 mi North - - N/A   Clear
10:15 PM 69.4 °F - 61.3 °F 75% 30.10 in 10.0 mi North - - N/A   Clear
10:35 PM 68.9 °F - 62.2 °F 79% 30.10 in 10.0 mi North - - N/A   Clear
10:55 PM 68.2 °F - 62.1 °F 81% 30.10 in 10.0 mi North - - N/A   Clear
11:15 PM 68.2 °F - 61.3 °F 79% 30.10 in 10.0 mi North - - N/A   Clear
11:40 PM 67.3 °F - 61.9 °F 83% 30.10 in 10.0 mi North - - N/A   Clear
11:55 PM 66.9 °F - 61.9 °F 84% 30.10 in 10.0 mi North - - N/A   Clear